Regional Weather Roundup
Issued by NWS

Home | Current Version | Previous Version | Graphics & Text | Print | Product List | Glossary On
Versions: 1 2 3 4 5 6 7 8 9 10 11 12 13 14 15 16 17 18 19 20 21 22 23 24 25 26 27 28 29 30 31 32 33 34 35 36 37 38 39 40 41 42 43 44 45 46 47 48 49 50
000
ASUS43 KIND 121609
RWRIN

WEATHER ROUNDUP FOR INDIANA
NATIONAL WEATHER SERVICE INDIANAPOLIS IN
1100 AM EST TUE DEC 12 2017

NOTE: "FAIR" INDICATES FEW OR NO CLOUDS BELOW 12,000 FEET WITH NO
SIGNIFICANT WEATHER AND/OR OBSTRUCTIONS TO VISIBILITY.

* - STATION DOES NOT REPORT WEATHER SUCH AS PRECIPITATION OR FOG.

+ - STATION NOT QUALITY CONTROLLED BY THE NATIONAL WEATHER SERVICE.
    USE DATA WITH CAUTION...ESPECIALLY DEWPOINT AND RELATIVE
    HUMIDITY OBSERVATIONS.

INZ001>003-010>013-019-020-121700-
NORTHWEST INDIANA

CITY           SKY/WX    TMP DP  RH WIND       PRES   REMARKS
GARY /AIRPORT/ PTSUNNY   23   7  50 NW16G32   30.10R WCI  10
KNOX *+        CLOUDY    21  18  86 W16G26    30.02R WCI   7
LA PORTE +     LGT SNOW  22  16  78 NW16G22   30.02R WCI   8
MICHIGAN CITY+ LGT SNOW  23  18  80 NW8G18    30.04R WCI  14
MONTICELLO +   SUNNY     23   7  50 NW20G25   30.05R WCI   8
RENSSELAER +   SUNNY     23   3  42 W18G28    30.08R WCI   9
VALPARAISO     LGT SNOW  21  12  68 NW17G25   30.05R WCI   7

$$

LMZ046-743>745-121700-
SOUTHERN LAKE MICHIGAN

STATION/POSITION TIME  TEMP    WIND        PRES    WAVE
                       AIR SEA DIR/SP/G            HT
                 (UTC) (F)     (DEG/KT/KT) (MB)    (FT)
BURNS HARBOR     1540   22     300/ 21/ 27 1017.9R
MICHIGAN CITY    1540   23     290/ 28/ 31   N/A

$$

INZ004-005-014>016-021>024-121700-
NORTH CENTRAL INDIANA

CITY           SKY/WX    TMP DP  RH WIND       PRES   REMARKS
ELKHART        LGT SNOW  21  16  79 NW12G17   29.98R WCI   9
GOSHEN         CLOUDY    21  14  74 N14       29.96S WCI   8
LOGANSPORT +   MOSUNNY   25  10  54 W17G23    30.04R WCI  11
PERU/GRISSOM   PTSUNNY   23  11  61 W21       30.00R WCI   8
ROCHESTER +    LGT SNOW  23  19  86 W12       30.01R VSB 3/4 WCI  12
SOUTH BEND     CLOUDY    22  13  68 NW20G25   29.99R WCI   7
WARSAW +       PTSUNNY   23  18  80 NW15      29.97S WCI  10

$$

INZ006>009-017-018-025>027-121700-
NORTHEAST INDIANA

CITY           SKY/WX    TMP DP  RH WIND       PRES   REMARKS
AUBURN +       CLOUDY    23  12  63 NW13      29.95S WCI  11
FORT WAYNE     LGT SNOW  20  18  92 NW13      29.97R VSB 3/4 WCI   7
HUNTINGTON +   PTSUNNY   24  11  57 NW14G26   29.97R WCI  12
KENDALLVILLE + CLOUDY    20  11  69 NW14G20   29.94R WCI   6

$$

INZ028-029-035-036-043>045-051>053-121700-
WEST CENTRAL INDIANA

CITY           SKY/WX    TMP DP  RH WIND       PRES   REMARKS
CRAWFORDSVL +  MOSUNNY   22  11  62 NW17G26     N/A  WCI   7
GREENCASTLE +  SUNNY     23   9  54 NW10G17   30.08R WCI  12
LAFAYETTE      SUNNY     23   8  52 NW18G26   30.08R WCI   9
TERRE HAUTE    MOSUNNY   25  11  55 NW16G23   30.13R WCI  12

$$

INZ030>032-037>040-046>048-054>057-064-065-121700-
CENTRAL INDIANA

CITY           SKY/WX    TMP DP  RH WIND       PRES   REMARKS
FRANKFORT +    SUNNY     26  13  58 NW18G24   30.06R WCI  13
GREENWOOD *+   MOSUNNY   29  17  60 NW13G23   30.04R WCI  19
INDIANAPOLIS   MOSUNNY   26  12  55 NW16G24   30.05R WCI  14
-EAGLE CREEK   SUNNY     25  12  58 NW17      30.04R WCI  12
KOKOMO +       PTSUNNY   23  13  65 NW20G26   30.02R WCI   8
MARION +       CLOUDY    22  17  81 W20       30.00R WCI   8
MT COMFORT *+  SUNNY     25  18  74 NW15G23   30.02R WCI  12
SHELBYVILLE    MOSUNNY   26  12  55 NW17      30.02R WCI  13
ZIONSVILLE +   SUNNY     23  13  66 NW13G21   30.04R WCI  11

$$

INZ033-034-041-042-049-050-058-059-121700-
EAST CENTRAL INDIANA

CITY           SKY/WX    TMP DP  RH WIND       PRES   REMARKS
MUNCIE         LGT SNOW  25  18  74 NW16      29.97S WCI  12
RICHMOND +     MOSUNNY   25  16  68 NW21G26   29.94S WCI  10

$$

INZ060-061-067>069-081>083-085>088-121700-
SOUTHWEST INDIANA

CITY           SKY/WX    TMP DP  RH WIND       PRES   REMARKS
EVANSVILLE     PTSUNNY   31  20  63 NW17G26   30.15R WCI  19
HUNTINGBURG +  SUNNY     30  16  56 NW17G23   30.12R WCI  18
WASHINGTON +   MOSUNNY   28  12  52 NW20G25   30.13R WCI  15

$$

INZ062-063-066-070>080-084-089>092-121700-
SOUTH CENTRAL AND SOUTHEAST INDIANA

CITY           SKY/WX    TMP DP  RH WIND       PRES   REMARKS
BLOOMINGTON    MOSUNNY   26  10  50 NW10G21   30.06R WCI  16
MADISON *+     MOSUNNY   32  14  47 NW12G20   30.03R WCI  23
NORTH VERNON + MOSUNNY   27  12  54 NW18G24   30.03R WCI  13
SEYMOUR +      MOSUNNY   32  12  43 NW13G21   30.05R WCI  22

$$





USA.gov is the U.S. government's official web portal to all federal, state and local government web resources and services.